| time (UTC) | temp C | wind direction | speed KPH | gust KPH | rain 1hr cm | rain 24hr cm | rain mn cm | humidity % | barometer mb |
| 20260504100251 | 7 | 154 | 0.0 | 0.0 | 0.00 | 0.00 | 0.00 | 86 | 1015.9 |
| 20260504081645 | 9 | 203 | 0.0 | 0.0 | 0.00 | 0.00 | 0.00 | 74 | 1016.6 |
| 20260504081141 | 10 | 203 | 0.0 | 1.6 | 0.00 | 0.00 | 0.00 | 74 | 1016.7 |
| 20260504080637 | 10 | 254 | 0.0 | 0.0 | 0.00 | 0.00 | 0.00 | 69 | 1016.7 |
| 20260504080134 | 10 | 255 | 0.0 | 0.0 | 0.00 | 0.00 | 0.00 | 69 | 1016.7 |
| 20260504050450 | 7 | 259 | 0.0 | 0.0 | 0.00 | 0.00 | 0.00 | 84 | 1017.2 |
| 20260504045947 | 7 | 259 | 0.0 | 0.0 | 0.00 | 0.00 | 0.00 | 84 | 1017.2 |
| 20260504045443 | 7 | 259 | 0.0 | 0.0 | 0.00 | 0.00 | 0.00 | 83 | 1017.1 |
| 20260504044939 | 7 | 259 | 0.0 | 0.0 | 0.00 | 0.00 | 0.00 | 81 | 1017.3 |
| 20260504044437 | 7 | 259 | 0.0 | 1.6 | 0.00 | 0.00 | 0.00 | 80 | 1017.1 |
| 20260504043934 | 7 | 258 | 0.0 | 0.0 | 0.00 | 0.00 | 0.00 | 79 | 1017.1 |
| 20260504043431 | 7 | 258 | 0.0 | 1.6 | 0.00 | 0.00 | 0.00 | 78 | 1017.0 |
| 20260504042929 | 7 | 258 | 0.0 | 1.6 | 0.00 | 0.00 | 0.00 | 80 | 1017.0 |
| 20260504042425 | 7 | 260 | 0.0 | 0.0 | 0.00 | 0.00 | 0.00 | 82 | 1016.9 |
| 20260504041921 | 8 | 260 | 0.0 | 0.0 | 0.00 | 0.00 | 0.00 | 84 | 1017.1 |
| 20260504041418 | 8 | 260 | 0.0 | 0.0 | 0.00 | 0.00 | 0.00 | 82 | 1017.2 |
| 20260504040914 | 8 | 260 | 0.0 | 0.0 | 0.00 | 0.00 | 0.00 | 82 | 1017.1 |
| 20260504040412 | 8 | 260 | 0.0 | 0.0 | 0.00 | 0.00 | 0.00 | 81 | 1017.1 |
| 20260504035908 | 8 | 260 | 0.0 | 0.0 | 0.00 | 0.00 | 0.00 | 79 | 1017.3 |
| 20260504035405 | 8 | 260 | 0.0 | 0.0 | 0.00 | 0.00 | 0.00 | 79 | 1017.3 |
| 20260504034901 | 8 | 260 | 0.0 | 0.0 | 0.00 | 0.00 | 0.00 | 81 | 1017.3 |
| 20260504034359 | 8 | 260 | 0.0 | 0.0 | 0.00 | 0.00 | 0.00 | 82 | 1017.4 |
| 20260504033856 | 8 | 260 | 0.0 | 0.0 | 0.00 | 0.00 | 0.00 | 80 | 1017.2 |
| 20260504033354 | 8 | 260 | 0.0 | 0.0 | 0.00 | 0.00 | 0.00 | 80 | 1017.3 |
| 20260504032850 | 8 | 260 | 0.0 | 0.0 | 0.00 | 0.00 | 0.00 | 81 | 1017.2 |
| 20260504032347 | 8 | 260 | 0.0 | 0.0 | 0.00 | 0.00 | 0.00 | 80 | 1017.4 |
| 20260504031844 | 8 | 260 | 0.0 | 0.0 | 0.00 | 0.00 | 0.00 | 78 | 1017.3 |
| 20260504031341 | 7 | 260 | 0.0 | 0.0 | 0.00 | 0.00 | 0.00 | 81 | 1017.3 |
| 20260504030837 | 7 | 260 | 0.0 | 0.0 | 0.00 | 0.00 | 0.00 | 81 | 1017.3 |
| 20260504030335 | 7 | 260 | 0.0 | 0.0 | 0.00 | 0.00 | 0.00 | 79 | 1017.2 |
| 20260504025831 | 7 | 260 | 0.0 | 0.0 | 0.00 | 0.00 | 0.00 | 80 | 1017.2 |
| 20260504025328 | 7 | 260 | 0.0 | 0.0 | 0.00 | 0.00 | 0.00 | 79 | 1017.4 |
| 20260504024825 | 7 | 260 | 0.0 | 0.0 | 0.00 | 0.00 | 0.00 | 80 | 1017.4 |
| 20260504024321 | 7 | 260 | 0.0 | 0.0 | 0.00 | 0.00 | 0.00 | 78 | 1017.5 |
| 20260504023818 | 7 | 260 | 0.0 | 0.0 | 0.00 | 0.00 | 0.00 | 79 | 1017.4 |
| 20260504023315 | 7 | 260 | 0.0 | 0.0 | 0.00 | 0.00 | 0.00 | 79 | 1017.4 |
| 20260504022810 | 7 | 260 | 0.0 | 0.0 | 0.00 | 0.00 | 0.00 | 80 | 1017.4 |
| 20260504022308 | 7 | 260 | 0.0 | 0.0 | 0.00 | 0.00 | 0.00 | 78 | 1017.4 |
| 20260504021804 | 7 | 260 | 0.0 | 0.0 | 0.00 | 0.00 | 0.00 | 77 | 1017.3 |
| 20260504021302 | 7 | 260 | 0.0 | 1.6 | 0.00 | 0.00 | 0.00 | 75 | 1017.4 |
| 20260504020758 | 7 | 260 | 0.0 | 1.6 | 0.00 | 0.00 | 0.00 | 76 | 1017.3 |
| 20260504020255 | 8 | 260 | 0.0 | 0.0 | 0.00 | 0.00 | 0.00 | 77 | 1017.2 |
| 20260504015751 | 8 | 260 | 0.0 | 1.6 | 0.00 | 0.00 | 0.00 | 75 | 1017.4 |
| 20260504015248 | 8 | 260 | 0.0 | 1.6 | 0.00 | 0.00 | 0.00 | 76 | 1017.3 |
| 20260504014743 | 8 | 261 | 0.0 | 0.0 | 0.00 | 0.00 | 0.00 | 74 | 1017.2 |
| 20260504014240 | 8 | 261 | 0.0 | 0.0 | 0.00 | 0.00 | 0.00 | 74 | 1017.3 |
| 20260504013738 | 8 | 261 | 0.0 | 0.0 | 0.00 | 0.00 | 0.00 | 74 | 1017.4 |
| 20260504013235 | 8 | 261 | 0.0 | 0.0 | 0.00 | 0.00 | 0.00 | 73 | 1017.3 |
| 20260504012731 | 8 | 261 | 0.0 | 0.0 | 0.00 | 0.00 | 0.00 | 72 | 1017.3 |
| 20260504012229 | 8 | 261 | 0.0 | 0.0 | 0.00 | 0.00 | 0.00 | 72 | 1017.3 |
| 20260504011726 | 9 | 261 | 0.0 | 0.0 | 0.00 | 0.00 | 0.00 | 70 | 1017.3 |
| 20260504011223 | 9 | 261 | 0.0 | 0.0 | 0.00 | 0.00 | 0.00 | 68 | 1017.2 |
| 20260504010719 | 10 | 261 | 0.0 | 0.0 | 0.00 | 0.00 | 0.00 | 68 | 1017.3 |
| 20260504010215 | 10 | 261 | 0.0 | 0.0 | 0.00 | 0.00 | 0.00 | 69 | 1017.3 |
| 20260504005711 | 10 | 261 | 0.0 | 0.0 | 0.00 | 0.00 | 0.00 | 68 | 1017.4 |
| 20260504005209 | 10 | 261 | 0.0 | 0.0 | 0.00 | 0.00 | 0.00 | 69 | 1017.3 |
| 20260504004706 | 10 | 261 | 0.0 | 0.0 | 0.00 | 0.00 | 0.00 | 66 | 1017.1 |
| 20260504004203 | 10 | 261 | 0.0 | 0.0 | 0.00 | 0.00 | 0.00 | 61 | 1017.2 |
| 20260504003700 | 10 | 261 | 0.0 | 0.0 | 0.00 | 0.00 | 0.00 | 60 | 1017.1 |
| 20260504003157 | 11 | 261 | 0.0 | 0.0 | 0.00 | 0.00 | 0.00 | 57 | 1017.0 |
| 20260504002653 | 12 | 261 | 0.0 | 0.0 | 0.00 | 0.00 | 0.00 | 50 | 1016.9 |
| 20260504002150 | 12 | 261 | 0.0 | 0.0 | 0.00 | 0.00 | 0.00 | 46 | 1016.9 |
| 20260504001649 | 12 | 261 | 0.0 | 0.0 | 0.00 | 0.00 | 0.00 | 43 | 1017.0 |
| 20260504001144 | 12 | 261 | 0.0 | 0.0 | 0.00 | 0.00 | 0.00 | 43 | 1017.1 |
| 20260504000642 | 13 | 261 | 0.0 | 0.0 | 0.00 | 0.00 | 0.00 | 43 | 1017.0 |
| 20260504000139 | 13 | 261 | 0.0 | 0.0 | 0.00 | 0.00 | 0.00 | 40 | 1017.1 |
| 20260503235637 | 13 | 261 | 0.0 | 1.6 | 0.00 | 0.00 | 0.00 | 39 | 1017.1 |
| 20260503235133 | 13 | 238 | 3.2 | 4.8 | 0.00 | 0.00 | 0.00 | 38 | 1017.1 |
| 20260503234631 | 13 | 266 | 1.6 | 3.2 | 0.00 | 0.00 | 0.00 | 38 | 1017.1 |
| 20260503234129 | 13 | 276 | 3.2 | 4.8 | 0.00 | 0.00 | 0.00 | 38 | 1017.2 |
| 20260503233626 | 13 | 260 | 1.6 | 3.2 | 0.00 | 0.00 | 0.00 | 37 | 1017.1 |
| 20260503233121 | 13 | 239 | 1.6 | 6.4 | 0.00 | 0.00 | 0.00 | 38 | 1017.1 |
| 20260503232619 | 13 | 249 | 4.8 | 9.7 | 0.00 | 0.00 | 0.00 | 36 | 1017.1 |
| 20260503232116 | 13 | 270 | 1.6 | 1.6 | 0.00 | 0.00 | 0.00 | 38 | 1017.2 |
| 20260503231614 | 13 | 257 | 0.0 | 9.7 | 0.00 | 0.00 | 0.00 | 39 | 1017.1 |
| 20260503231110 | 14 | 258 | 3.2 | 4.8 | 0.00 | 0.00 | 0.00 | 36 | 1017.0 |
| 20260503230607 | 14 | 283 | 4.8 | 9.7 | 0.00 | 0.00 | 0.00 | 35 | 1017.1 |
| 20260503230104 | 14 | 250 | 6.4 | 9.7 | 0.00 | 0.00 | 0.00 | 34 | 1017.2 |
| 20260503225601 | 15 | 253 | 6.4 | 9.7 | 0.00 | 0.00 | 0.00 | 34 | 1017.3 |
| 20260503225056 | 15 | 265 | 3.2 | 11.3 | 0.00 | 0.00 | 0.00 | 38 | 1017.4 |
| 20260503224554 | 15 | 275 | 3.2 | 3.2 | 0.00 | 0.00 | 0.00 | 35 | 1017.4 |
| 20260503224052 | 15 | 286 | 3.2 | 9.7 | 0.00 | 0.00 | 0.00 | 35 | 1017.2 |
| 20260503223550 | 15 | 219 | 9.7 | 16.1 | 0.00 | 0.00 | 0.00 | 33 | 1017.3 |
| 20260503223045 | 15 | 270 | 8.0 | 11.3 | 0.00 | 0.00 | 0.00 | 33 | 1017.1 |
| 20260503222543 | 15 | 292 | 4.8 | 9.7 | 0.00 | 0.00 | 0.00 | 34 | 1017.4 |
| 20260503222041 | 15 | 280 | 1.6 | 6.4 | 0.00 | 0.00 | 0.00 | 32 | 1017.5 |
| 20260503221539 | 15 | 273 | 3.2 | 9.7 | 0.00 | 0.00 | 0.00 | 34 | 1017.5 |
| 20260503221036 | 16 | 285 | 3.2 | 6.4 | 0.00 | 0.00 | 0.00 | 32 | 1017.4 |
| 20260503220532 | 16 | 267 | 4.8 | 6.4 | 0.00 | 0.00 | 0.00 | 33 | 1017.2 |
| 20260503220029 | 15 | 275 | 1.6 | 9.7 | 0.00 | 0.00 | 0.00 | 35 | 1017.2 |
| 20260503215526 | 16 | 269 | 6.4 | 11.3 | 0.00 | 0.00 | 0.00 | 31 | 1017.3 |
| 20260503215023 | 16 | 326 | 1.6 | 6.4 | 0.00 | 0.00 | 0.00 | 31 | 1017.3 |
| 20260503214522 | 16 | 287 | 1.6 | 1.6 | 0.00 | 0.00 | 0.00 | 30 | 1017.4 |
| 20260503214018 | 16 | 223 | 6.4 | 12.9 | 0.00 | 0.00 | 0.00 | 33 | 1017.3 |
| 20260503213516 | 16 | 188 | 0.0 | 3.2 | 0.00 | 0.00 | 0.00 | 32 | 1017.2 |
| 20260503213013 | 15 | 100 | 1.6 | 6.4 | 0.00 | 0.00 | 0.00 | 31 | 1017.5 |
| 20260503212510 | 16 | 260 | 3.2 | 9.7 | 0.00 | 0.00 | 0.00 | 35 | 1017.2 |
| 20260503212007 | 15 | 281 | 8.0 | 11.3 | 0.00 | 0.00 | 0.00 | 34 | 1017.3 |
| 20260503211504 | 15 | 263 | 6.4 | 9.7 | 0.00 | 0.00 | 0.00 | 31 | 1017.3 |
| 20260503211000 | 15 | 119 | 3.2 | 4.8 | 0.00 | 0.00 | 0.00 | 31 | 1017.4 |
| 20260503210457 | 16 | 279 | 3.2 | 9.7 | 0.00 | 0.00 | 0.00 | 42 | 1017.5 |
| 20260503205957 | 15 | 293 | 6.4 | 11.3 | 0.00 | 0.00 | 0.00 | 35 | 1017.4 |
| 20260503205454 | 15 | 305 | 3.2 | 6.4 | 0.00 | 0.00 | 0.00 | 33 | 1017.5 |
| 20260503204951 | 16 | 251 | 1.6 | 9.7 | 0.00 | 0.00 | 0.00 | 36 | 1017.5 |
| 20260503204448 | 15 | 317 | 1.6 | 6.4 | 0.00 | 0.00 | 0.00 | 37 | 1017.7 |
| 20260503203945 | 15 | 239 | 4.8 | 9.7 | 0.00 | 0.00 | 0.00 | 35 | 1017.8 |
| 20260503203443 | 15 | 292 | 3.2 | 4.8 | 0.00 | 0.00 | 0.00 | 33 | 1017.9 |
| 20260503202939 | 16 | 229 | 9.7 | 17.7 | 0.00 | 0.00 | 0.00 | 33 | 1017.8 |
| 20260503202437 | 16 | 254 | 1.6 | 6.4 | 0.00 | 0.00 | 0.00 | 35 | 1017.9 |
| 20260503201936 | 15 | 274 | 4.8 | 6.4 | 0.00 | 0.00 | 0.00 | 38 | 1018.0 |
| 20260503201432 | 15 | 228 | 6.4 | 12.9 | 0.00 | 0.00 | 0.00 | 34 | 1018.0 |
| 20260503200930 | 16 | 346 | 3.2 | 12.9 | 0.00 | 0.00 | 0.00 | 33 | 1018.0 |
| 20260503200426 | 16 | 288 | 3.2 | 4.8 | 0.00 | 0.00 | 0.00 | 38 | 1018.1 |
| 20260503195923 | 16 | 240 | 0.0 | 6.4 | 0.00 | 0.00 | 0.00 | 30 | 1018.4 |
| 20260503195420 | 16 | 258 | 1.6 | 6.4 | 0.00 | 0.00 | 0.00 | 32 | 1018.6 |
| 20260503194916 | 16 | 236 | 3.2 | 6.4 | 0.00 | 0.00 | 0.00 | 35 | 1018.5 |
| 20260503194413 | 16 | 318 | 1.6 | 12.9 | 0.00 | 0.00 | 0.00 | 40 | 1018.6 |
| 20260503193909 | 15 | 273 | 3.2 | 4.8 | 0.00 | 0.00 | 0.00 | 42 | 1018.7 |
| 20260503193404 | 15 | 298 | 11.3 | 14.5 | 0.00 | 0.00 | 0.00 | 34 | 1018.7 |
| 20260503192900 | 15 | 307 | 1.6 | 3.2 | 0.00 | 0.00 | 0.00 | 38 | 1018.7 |
| 20260503192356 | 15 | 288 | 3.2 | 4.8 | 0.00 | 0.00 | 0.00 | 36 | 1019.0 |
| 20260503191853 | 15 | 289 | 0.0 | 4.8 | 0.00 | 0.00 | 0.00 | 33 | 1019.2 |
| 20260503191350 | 15 | 278 | 1.6 | 6.4 | 0.00 | 0.00 | 0.00 | 41 | 1019.1 |
| 20260503190846 | 15 | 271 | 3.2 | 3.2 | 0.00 | 0.00 | 0.00 | 36 | 1019.3 |
| 20260503190344 | 13 | 284 | 1.6 | 4.8 | 0.00 | 0.00 | 0.00 | 37 | 1019.3 |
| 20260503185841 | 13 | 105 | 1.6 | 3.2 | 0.00 | 0.00 | 0.00 | 35 | 1019.2 |
| 20260503185337 | 14 | 198 | 0.0 | 6.4 | 0.00 | 0.00 | 0.00 | 34 | 1019.3 |
| 20260503184837 | 16 | 262 | 3.2 | 11.3 | 0.00 | 0.00 | 0.00 | 45 | 1019.2 |
| 20260503184333 | 16 | 17 | 4.8 | 4.8 | 0.00 | 0.00 | 0.00 | 38 | 1019.3 |
| 20260503183828 | 15 | 314 | 1.6 | 4.8 | 0.00 | 0.00 | 0.00 | 40 | 1019.4 |
| 20260503183326 | 15 | 281 | 14.5 | 16.1 | 0.00 | 0.00 | 0.00 | 36 | 1019.5 |
| 20260503182823 | 15 | 295 | 1.6 | 9.7 | 0.00 | 0.00 | 0.00 | 41 | 1019.7 |
| 20260503182322 | 15 | 2 | 1.6 | 4.8 | 0.00 | 0.00 | 0.00 | 39 | 1019.7 |
| 20260503181819 | 14 | 224 | 6.4 | 11.3 | 0.00 | 0.00 | 0.00 | 37 | 1019.7 |
| 20260503181316 | 15 | 277 | 3.2 | 3.2 | 0.00 | 0.00 | 0.00 | 41 | 1019.7 |
| 20260503180812 | 13 | 312 | 1.6 | 4.8 | 0.00 | 0.00 | 0.00 | 42 | 1019.6 |
| 20260503180311 | 13 | 286 | 1.6 | 6.4 | 0.00 | 0.00 | 0.00 | 39 | 1020.1 |
| 20260503175806 | 13 | 187 | 6.4 | 11.3 | 0.00 | 0.00 | 0.00 | 39 | 1019.9 |
| 20260503175306 | 13 | 209 | 1.6 | 9.7 | 0.00 | 0.00 | 0.00 | 37 | 1019.9 |
| 20260503174805 | 13 | 282 | 6.4 | 17.7 | 0.00 | 0.00 | 0.00 | 37 | 1020.1 |
| 20260503174304 | 15 | 322 | 3.2 | 6.4 | 0.00 | 0.00 | 0.00 | 41 | 1020.2 |
| 20260503173759 | 13 | 290 | 1.6 | 11.3 | 0.00 | 0.00 | 0.00 | 43 | 1020.0 |
| 20260503173255 | 14 | 288 | 3.2 | 4.8 | 0.00 | 0.00 | 0.00 | 43 | 1020.1 |
| 20260503172752 | 13 | 140 | 9.7 | 11.3 | 0.00 | 0.00 | 0.00 | 36 | 1020.2 |
| 20260503172249 | 13 | 260 | 11.3 | 12.9 | 0.00 | 0.00 | 0.00 | 37 | 1020.3 |
| 20260503171746 | 12 | 274 | 6.4 | 11.3 | 0.00 | 0.00 | 0.00 | 40 | 1020.3 |
| 20260503171243 | 13 | 279 | 3.2 | 9.7 | 0.00 | 0.00 | 0.00 | 36 | 1020.3 |
| 20260503170740 | 12 | 237 | 1.6 | 9.7 | 0.00 | 0.00 | 0.00 | 37 | 1020.5 |
| 20260503170237 | 13 | 311 | 1.6 | 3.2 | 0.00 | 0.00 | 0.00 | 45 | 1020.6 |
| 20260503160159 | 11 | 354 | 3.2 | 16.1 | 0.00 | 0.00 | 0.00 | 46 | 1021.3 |
| 20260503150629 | 11 | 316 | 1.6 | 3.2 | 0.00 | 0.00 | 0.00 | 51 | 1021.7 |
| 20260503150125 | 9 | 312 | 3.2 | 4.8 | 0.00 | 0.00 | 0.00 | 55 | 1021.7 |
| 20260503131019 | 6 | 258 | 3.2 | 4.8 | 0.00 | 0.00 | 0.00 | 74 | 1021.7 |
| 20260503130516 | 6 | 250 | 1.6 | 4.8 | 0.00 | 0.00 | 0.00 | 75 | 1021.7 |
| 20260503110407 | 0 | 213 | 0.0 | 0.0 | 0.00 | 0.00 | 0.00 | 98 | 1021.0 |